Location: ???????
(55.7027°N, 37.3832°E)
Time: 21:39:32
(UTC+00:00)

Cosmos 1725 Rocket - Pass Details

Date: 14 April 2026
Orbit: 960 x 990 km, 82.9° (Epoch: 13 May)

Event Time Altitude Azimuth Distance (km) Brightness Sun altitude
Exits shadow 21:33:53 55° 191° (SSW) 1,181 4.0 -24.6°
Maximum altitude 21:35:26 89° 276° (W) 999 3.9 -24.6°
Drops below altitude 10° 21:41:48 10° 12° (NNE) 2,760 7.4 -24.6°
Sets 21:44:20 0° 12° (NNE) 3,710 8.4 -24.6°
